When you browse on this site, cookies collect data to enhance your experience and personalize the content and advertising you see.
Visit our Privacy Policy to learn more. By continuing to use the site, you agree to this use of cookies and data.
  • In Spain
  • List of Countries
  • For 7 days
  • Water Temperature
  • Weather Map
  • Weather Widgets
  • user-avatar
    Login

    Hourly Weather Viedma

    Today, 17 October, Thursday

    Time Temperature Precipitation Wind Pressure Humidity
    00:00 +12°C° 0 mm 5 mps 763 mmHg 84%
    01:00 +11°C° 0 mm 4 mps 762 mmHg 86%
    02:00 +11°C° 0 mm 4 mps 762 mmHg 90%
    03:00 +11°C° 1.5 mm 3 mps 762 mmHg 92%
    04:00 +11°C° 1.5 mm 3 mps 762 mmHg 94%
    05:00 +12°C° 1.5 mm 2 mps 761 mmHg 97%
    06:00 +13°C° 1.9 mm 2 mps 762 mmHg 96%
    07:00 +12°C° 1.9 mm 3 mps 762 mmHg 96%
    08:00 +12°C° 0 mm 3 mps 761 mmHg 95%
    09:00 +12°C° 1.2 mm 3 mps 761 mmHg 93%
    10:00 +13°C° 1.2 mm 3 mps 761 mmHg 91%
    11:00 +13°C° 1.2 mm 4 mps 761 mmHg 90%
    12:00 +13°C° 0.2 mm 4 mps 760 mmHg 89%
    13:00 +13°C° 0.2 mm 4 mps 760 mmHg 89%
    14:00 +12°C° 0.2 mm 4 mps 760 mmHg 89%
    15:00 +13°C° 0 mm 4 mps 759 mmHg 87%
    16:00 +13°C° 0 mm 3 mps 759 mmHg 85%
    17:00 +13°C° 0 mm 3 mps 759 mmHg 83%
    18:00 +12°C° 0 mm 3 mps 759 mmHg 86%
    19:00 +12°C° 0 mm 3 mps 759 mmHg 88%
    20:00 +12°C° 0 mm 2 mps 760 mmHg 91%
    21:00 +10°C° 0 mm 2 mps 759 mmHg 93%
    22:00 +10°C° 0 mm 1 mps 759 mmHg 95%
    23:00 +8°C° 0 mm 0 mps 759 mmHg 96%

    Tomorrow, 18 October, Friday

    Time Temperature Precipitation Wind Pressure Humidity
    00:00 +9°C° 0 mm 1 mps 759 mmHg 96%
    01:00 +9°C° 0 mm 1 mps 759 mmHg 96%
    02:00 +9°C° 0 mm 1 mps 759 mmHg 96%
    03:00 +8°C° 0 mm 1 mps 759 mmHg 96%
    04:00 +7°C° 0 mm 0 mps 759 mmHg 96%
    05:00 +7°C° 0 mm 0 mps 759 mmHg 96%
    06:00 +10°C° 0 mm 1 mps 760 mmHg 87%
    07:00 +13°C° 0 mm 2 mps 760 mmHg 79%
    08:00 +15°C° 0 mm 2 mps 761 mmHg 70%
    09:00 +17°C° 0 mm 4 mps 761 mmHg 60%
    10:00 +19°C° 0 mm 5 mps 761 mmHg 50%
    11:00 +20°C° 0 mm 6 mps 761 mmHg 39%
    12:00 +21°C° 0 mm 6 mps 761 mmHg 37%
    13:00 +21°C° 0 mm 6 mps 761 mmHg 34%
    14:00 +21°C° 0 mm 6 mps 761 mmHg 31%
    15:00 +21°C° 0 mm 6 mps 761 mmHg 32%
    16:00 +20°C° 0 mm 5 mps 761 mmHg 33%
    17:00 +19°C° 0 mm 5 mps 761 mmHg 34%
    18:00 +17°C° 0 mm 4 mps 762 mmHg 45%
    19:00 +13°C° 0 mm 4 mps 762 mmHg 55%
    20:00 +11°C° 0 mm 3 mps 763 mmHg 66%
    21:00 +10°C° 0 mm 3 mps 763 mmHg 68%
    22:00 +10°C° 0 mm 2 mps 763 mmHg 70%
    23:00 +9°C° 0 mm 2 mps 764 mmHg 72%

    Day after tomorrow, 19 October, Saturday

    Time Temperature Precipitation Wind Pressure Humidity
    00:00 +9°C° 0 mm 2 mps 763 mmHg 71%
    01:00 +9°C° 0 mm 2 mps 763 mmHg 70%
    02:00 +8°C° 0 mm 2 mps 763 mmHg 69%
    03:00 +8°C° 0 mm 2 mps 763 mmHg 68%
    04:00 +8°C° 0 mm 3 mps 763 mmHg 67%
    05:00 +8°C° 0 mm 3 mps 763 mmHg 66%
    06:00 +11°C° 0 mm 3 mps 763 mmHg 59%
    07:00 +13°C° 0 mm 4 mps 764 mmHg 53%
    08:00 +15°C° 0 mm 5 mps 764 mmHg 46%
    09:00 +19°C° 0 mm 5 mps 763 mmHg 40%
    10:00 +22°C° 0 mm 5 mps 763 mmHg 34%
    11:00 +24°C° 0 mm 6 mps 763 mmHg 29%
    12:00 +26°C° 0 mm 6 mps 762 mmHg 26%
    13:00 +27°C° 0 mm 6 mps 762 mmHg 24%
    14:00 +29°C° 0 mm 6 mps 761 mmHg 21%
    15:00 +27°C° 0 mm 6 mps 760 mmHg 25%
    16:00 +26°C° 0 mm 7 mps 760 mmHg 28%
    17:00 +24°C° 0 mm 7 mps 759 mmHg 32%
    18:00 +21°C° 0 mm 7 mps 759 mmHg 37%
    19:00 +18°C° 0 mm 7 mps 759 mmHg 42%
    20:00 +15°C° 0 mm 7 mps 759 mmHg 48%
    21:00 +15°C° 0 mm 7 mps 759 mmHg 51%
    22:00 +15°C° 0 mm 8 mps 759 mmHg 54%
    23:00 +15°C° 0 mm 8 mps 759 mmHg 57%

    20 October, Sunday

    Time Temperature Precipitation Wind Pressure Humidity
    00:00 +15°C° 0 mm 7 mps 759 mmHg 59%
    01:00 +15°C° 0 mm 7 mps 759 mmHg 60%
    02:00 +15°C° 0 mm 7 mps 758 mmHg 62%
    03:00 +15°C° 0 mm 6 mps 758 mmHg 60%
    04:00 +15°C° 0 mm 6 mps 758 mmHg 59%
    05:00 +16°C° 0 mm 6 mps 758 mmHg 58%
    06:00 +17°C° 0 mm 7 mps 758 mmHg 54%
    07:00 +18°C° 0 mm 7 mps 758 mmHg 51%
    08:00 +20°C° 0 mm 8 mps 758 mmHg 48%
    09:00 +22°C° 0 mm 8 mps 758 mmHg 44%
    10:00 +23°C° 0 mm 8 mps 758 mmHg 41%
    11:00 +26°C° 0 mm 8 mps 758 mmHg 37%
    12:00 +26°C° 0 mm 8 mps 758 mmHg 35%
    13:00 +27°C° 0 mm 8 mps 757 mmHg 33%
    14:00 +28°C° 0 mm 8 mps 757 mmHg 31%
    15:00 +27°C° 0 mm 8 mps 757 mmHg 33%
    16:00 +26°C° 0 mm 8 mps 756 mmHg 35%
    17:00 +26°C° 0 mm 8 mps 756 mmHg 36%
    18:00 +23°C° 0 mm 8 mps 756 mmHg 39%
    19:00 +22°C° 0 mm 7 mps 756 mmHg 42%
    20:00 +21°C° 0 mm 6 mps 755 mmHg 45%
    21:00 +21°C° 0 mm 7 mps 755 mmHg 47%
    22:00 +20°C° 0 mm 7 mps 755 mmHg 48%
    23:00 +20°C° 0 mm 8 mps 755 mmHg 49%

    21 October, Monday

    Time Temperature Precipitation Wind Pressure Humidity
    00:00 +20°C° 0 mm 8 mps 755 mmHg 52%
    01:00 +18°C° 0 mm 8 mps 755 mmHg 55%
    02:00 +18°C° 0 mm 8 mps 755 mmHg 58%
    03:00 +17°C° 0 mm 7 mps 755 mmHg 50%
    04:00 +16°C° 0 mm 6 mps 756 mmHg 42%
    05:00 +15°C° 0 mm 5 mps 756 mmHg 34%
    06:00 +16°C° 0 mm 7 mps 757 mmHg 33%
    07:00 +16°C° 0 mm 8 mps 757 mmHg 33%
    08:00 +17°C° 0 mm 9 mps 758 mmHg 32%
    09:00 +17°C° 0 mm 10 mps 758 mmHg 29%
    10:00 +17°C° 0 mm 10 mps 759 mmHg 25%
    11:00 +17°C° 0 mm 10 mps 759 mmHg 21%
    12:00 +17°C° 0 mm 10 mps 759 mmHg 20%
    13:00 +18°C° 0 mm 10 mps 760 mmHg 18%
    14:00 +18°C° 0 mm 10 mps 760 mmHg 17%
    15:00 +17°C° 0 mm 9 mps 760 mmHg 17%
    16:00 +17°C° 0 mm 8 mps 759 mmHg 18%
    17:00 +17°C° 0 mm 7 mps 759 mmHg 18%
    18:00 +15°C° 0 mm 6 mps 760 mmHg 22%
    19:00 +13°C° 0 mm 4 mps 760 mmHg 26%
    20:00 +12°C° 0 mm 2 mps 760 mmHg 30%
    21:00 +10°C° 0 mm 2 mps 760 mmHg 42%
    22:00 +9°C° 0 mm 2 mps 761 mmHg 54%
    23:00 +8°C° 0 mm 3 mps 761 mmHg 66%

    22 October, Tuesday

    Time Temperature Precipitation Wind Pressure Humidity
    00:00 +8°C° 0 mm 2 mps 761 mmHg 69%
    01:00 +7°C° 0 mm 2 mps 761 mmHg 71%
    02:00 +7°C° 0 mm 2 mps 761 mmHg 74%
    03:00 +7°C° 0 mm 2 mps 761 mmHg 68%
    04:00 +7°C° 0 mm 2 mps 761 mmHg 62%
    05:00 +7°C° 0 mm 2 mps 761 mmHg 56%
    06:00 +10°C° 0 mm 3 mps 761 mmHg 46%
    07:00 +12°C° 0 mm 4 mps 761 mmHg 36%
    08:00 +15°C° 0 mm 5 mps 761 mmHg 26%
    09:00 +17°C° 0 mm 6 mps 761 mmHg 25%
    10:00 +19°C° 0 mm 6 mps 761 mmHg 24%
    11:00 +21°C° 0 mm 6 mps 761 mmHg 23%
    12:00 +21°C° 0 mm 6 mps 761 mmHg 23%
    13:00 +21°C° 0 mm 5 mps 760 mmHg 22%
    14:00 +21°C° 0 mm 5 mps 760 mmHg 22%
    15:00 +21°C° 0 mm 5 mps 760 mmHg 22%
    16:00 +20°C° 0 mm 4 mps 759 mmHg 23%
    17:00 +20°C° 0 mm 3 mps 759 mmHg 23%
    18:00 +17°C° 0 mm 3 mps 759 mmHg 31%
    19:00 +14°C° 0 mm 4 mps 759 mmHg 40%
    20:00 +11°C° 0 mm 4 mps 759 mmHg 48%
    21:00 +11°C° 0 mm 4 mps 759 mmHg 54%
    22:00 +10°C° 0 mm 4 mps 759 mmHg 60%
    23:00 +8°C° 0 mm 4 mps 760 mmHg 66%
    Show more